Location: Hopville
(44.8032°N, 123.1329°W)
Time: 04:21:43
(UTC+00:00)

SKYMED 2 - Pass Details

Date: 24 January 2021
Orbit: 621 x 623 km, 97.9° (Epoch: 26 February)

Event Time Altitude Azimuth Distance (km) Brightness Sun altitude
Rises 13:04:49 0° 157° (SSE) 2,892 7.3 -27.3°
Reaches altitude 10° 13:07:00 10° 154° (SSE) 1,990 6.4 -27.0°
Maximum altitude 13:11:16 62° 74° (ENE) 704 3.9 -26.2°
Enters shadow 13:12:00 53° 29° (NNE) 772 4.1 -26.1°
